Date_Time,Julian_Date,Latitude,Longitude,Instrument_Depth,Water_Temperature
(yyyy-mm-dd hh:mn:ss UTC),(JD),(+ deg. North),(+ deg. East),(m),(deg. C)
1984-07-18 09:09:00 UTC,2445899.881250,25.7150,-84.8850,1600,4.6200
1984-07-18 09:39:00 UTC,2445899.902083,25.7150,-84.8850,1600,4.6200
1984-07-18 10:09:00 UTC,2445899.922917,25.7150,-84.8850,1600,4.6230
1984-07-18 10:39:00 UTC,2445899.943750,25.7150,-84.8850,1600,4.5990
1984-07-18 11:09:00 UTC,2445899.964583,25.7150,-84.8850,1600,4.6010
1984-07-18 11:39:00 UTC,2445899.985417,25.7150,-84.8850,1600,4.5780
1984-07-18 12:09:00 UTC,2445900.006250,25.7150,-84.8850,1600,4.5900
1984-07-18 12:39:00 UTC,2445900.027083,25.7150,-84.8850,1600,4.5590
1984-07-18 13:09:00 UTC,2445900.047917,25.7150,-84.8850,1600,4.5780
1984-07-18 13:39:00 UTC,2445900.068750,25.7150,-84.8850,1600,4.5830
1984-07-18 14:09:00 UTC,2445900.089583,25.7150,-84.8850,1600,4.5730
1984-07-18 14:39:00 UTC,2445900.110417,25.7150,-84.8850,1600,4.5560
1984-07-18 15:09:00 UTC,2445900.131250,25.7150,-84.8850,1600,4.5680
1984-07-18 15:39:00 UTC,2445900.152083,25.7150,-84.8850,1600,4.5540
1984-07-18 16:09:00 UTC,2445900.172917,25.7150,-84.8850,1600,4.5550
1984-07-18 16:39:00 UTC,2445900.193750,25.7150,-84.8850,1600,4.5790
1984-07-18 17:09:00 UTC,2445900.214583,25.7150,-84.8850,1600,4.5640
1984-07-18 17:39:00 UTC,2445900.235417,25.7150,-84.8850,1600,4.5690
1984-07-18 18:09:00 UTC,2445900.256250,25.7150,-84.8850,1600,4.5570
1984-07-18 18:39:00 UTC,2445900.277083,25.7150,-84.8850,1600,4.5680
1984-07-18 19:09:00 UTC,2445900.297917,25.7150,-84.8850,1600,4.5540
1984-07-18 19:39:00 UTC,2445900.318750,25.7150,-84.8850,1600,4.5580
1984-07-18 20:09:00 UTC,2445900.339583,25.7150,-84.8850,1600,4.5600
1984-07-18 20:39:00 UTC,2445900.360417,25.7150,-84.8850,1600,4.5310
1984-07-18 21:09:00 UTC,2445900.381250,25.7150,-84.8850,1600,4.5490
1984-07-18 21:39:00 UTC,2445900.402083,25.7150,-84.8850,1600,4.5170
1984-07-18 22:09:00 UTC,2445900.422917,25.7150,-84.8850,1600,4.5480
1984-07-18 22:39:00 UTC,2445900.443750,25.7150,-84.8850,1600,4.5260
1984-07-18 23:09:00 UTC,2445900.464583,25.7150,-84.8850,1600,4.5470
1984-07-18 23:39:00 UTC,2445900.485417,25.7150,-84.8850,1600,4.5560
1984-07-19 00:09:00 UTC,2445900.506250,25.7150,-84.8850,1600,4.5410
1984-07-19 00:39:00 UTC,2445900.527083,25.7150,-84.8850,1600,4.5490
1984-07-19 01:09:00 UTC,2445900.547917,25.7150,-84.8850,1600,4.5520
1984-07-19 01:39:00 UTC,2445900.568750,25.7150,-84.8850,1600,4.5260
1984-07-19 02:09:00 UTC,2445900.589583,25.7150,-84.8850,1600,4.5400
1984-07-19 02:39:00 UTC,2445900.610417,25.7150,-84.8850,1600,4.5110
1984-07-19 03:09:00 UTC,2445900.631250,25.7150,-84.8850,1600,4.5270
1984-07-19 03:39:00 UTC,2445900.652083,25.7150,-84.8850,1600,4.5500
1984-07-19 04:09:00 UTC,2445900.672917,25.7150,-84.8850,1600,4.5310
1984-07-19 04:39:00 UTC,2445900.693750,25.7150,-84.8850,1600,4.5390
1984-07-19 05:09:00 UTC,2445900.714583,25.7150,-84.8850,1600,4.5410
1984-07-19 05:39:00 UTC,2445900.735417,25.7150,-84.8850,1600,4.5310
1984-07-19 06:09:00 UTC,2445900.756250,25.7150,-84.8850,1600,4.5290
1984-07-19 06:39:00 UTC,2445900.777083,25.7150,-84.8850,1600,4.5490
1984-07-19 07:09:00 UTC,2445900.797917,25.7150,-84.8850,1600,4.5430
1984-07-19 07:39:00 UTC,2445900.818750,25.7150,-84.8850,1600,4.5140
1984-07-19 08:09:00 UTC,2445900.839583,25.7150,-84.8850,1600,4.5460
1984-07-19 08:39:00 UTC,2445900.860417,25.7150,-84.8850,1600,4.5560
1984-07-19 09:09:00 UTC,2445900.881250,25.7150,-84.8850,1600,4.5430
1984-07-19 09:39:00 UTC,2445900.902083,25.7150,-84.8850,1600,4.5190
1984-07-19 10:09:00 UTC,2445900.922917,25.7150,-84.8850,1600,4.5530
1984-07-19 10:39:00 UTC,2445900.943750,25.7150,-84.8850,1600,4.5400
1984-07-19 11:09:00 UTC,2445900.964583,25.7150,-84.8850,1600,4.5540
1984-07-19 11:39:00 UTC,2445900.985417,25.7150,-84.8850,1600,4.5400
1984-07-19 12:09:00 UTC,2445901.006250,25.7150,-84.8850,1600,4.5600
1984-07-19 12:39:00 UTC,2445901.027083,25.7150,-84.8850,1600,4.5450
1984-07-19 13:09:00 UTC,2445901.047917,25.7150,-84.8850,1600,4.5600
1984-07-19 13:39:00 UTC,2445901.068750,25.7150,-84.8850,1600,4.5550
1984-07-19 14:09:00 UTC,2445901.089583,25.7150,-84.8850,1600,4.5550
1984-07-19 14:39:00 UTC,2445901.110417,25.7150,-84.8850,1600,4.5200
1984-07-19 15:09:00 UTC,2445901.131250,25.7150,-84.8850,1600,4.5550
1984-07-19 15:39:00 UTC,2445901.152083,25.7150,-84.8850,1600,4.5200
1984-07-19 16:09:00 UTC,2445901.172917,25.7150,-84.8850,1600,4.5550
1984-07-19 16:39:00 UTC,2445901.193750,25.7150,-84.8850,1600,4.5600
1984-07-19 17:09:00 UTC,2445901.214583,25.7150,-84.8850,1600,4.5550
1984-07-19 17:39:00 UTC,2445901.235417,25.7150,-84.8850,1600,4.5200
1984-07-19 18:09:00 UTC,2445901.256250,25.7150,-84.8850,1600,4.5550
1984-07-19 18:39:00 UTC,2445901.277083,25.7150,-84.8850,1600,4.5400
1984-07-19 19:09:00 UTC,2445901.297917,25.7150,-84.8850,1600,4.5500
1984-07-19 19:39:00 UTC,2445901.318750,25.7150,-84.8850,1600,4.5550
1984-07-19 20:09:00 UTC,2445901.339583,25.7150,-84.8850,1600,4.5550
1984-07-19 20:39:00 UTC,2445901.360417,25.7150,-84.8850,1600,4.5200
1984-07-19 21:09:00 UTC,2445901.381250,25.7150,-84.8850,1600,4.5550
1984-07-19 21:39:00 UTC,2445901.402083,25.7150,-84.8850,1600,4.5300
1984-07-19 22:09:00 UTC,2445901.422917,25.7150,-84.8850,1600,4.5550
1984-07-19 22:39:00 UTC,2445901.443750,25.7150,-84.8850,1600,4.5600
1984-07-19 23:09:00 UTC,2445901.464583,25.7150,-84.8850,1600,4.5500
1984-07-19 23:39:00 UTC,2445901.485417,25.7150,-84.8850,1600,4.5490
1984-07-20 00:09:00 UTC,2445901.506250,25.7150,-84.8850,1600,4.5310
1984-07-20 00:39:00 UTC,2445901.527083,25.7150,-84.8850,1600,4.5500
1984-07-20 01:09:00 UTC,2445901.547917,25.7150,-84.8850,1600,4.5270
1984-07-20 01:39:00 UTC,2445901.568750,25.7150,-84.8850,1600,4.5110
1984-07-20 02:09:00 UTC,2445901.589583,25.7150,-84.8850,1600,4.5400
1984-07-20 02:39:00 UTC,2445901.610417,25.7150,-84.8850,1600,4.5260
1984-07-20 03:09:00 UTC,2445901.631250,25.7150,-84.8850,1600,4.5520
1984-07-20 03:39:00 UTC,2445901.652083,25.7150,-84.8850,1600,4.5490
1984-07-20 04:09:00 UTC,2445901.672917,25.7150,-84.8850,1600,4.5390
1984-07-20 04:39:00 UTC,2445901.693750,25.7150,-84.8850,1600,4.5410
1984-07-20 05:09:00 UTC,2445901.714583,25.7150,-84.8850,1600,4.5510
1984-07-20 05:39:00 UTC,2445901.735417,25.7150,-84.8850,1600,4.5500
1984-07-20 06:09:00 UTC,2445901.756250,25.7150,-84.8850,1600,4.5490
1984-07-20 06:39:00 UTC,2445901.777083,25.7150,-84.8850,1600,4.5400
1984-07-20 07:09:00 UTC,2445901.797917,25.7150,-84.8850,1600,4.5570
1984-07-20 07:39:00 UTC,2445901.818750,25.7150,-84.8850,1600,4.5600
1984-07-20 08:09:00 UTC,2445901.839583,25.7150,-84.8850,1600,4.5550
1984-07-20 08:39:00 UTC,2445901.860417,25.7150,-84.8850,1600,4.5550
1984-07-20 09:09:00 UTC,2445901.881250,25.7150,-84.8850,1600,4.5550
1984-07-20 09:39:00 UTC,2445901.902083,25.7150,-84.8850,1600,4.5550
1984-07-20 10:09:00 UTC,2445901.922917,25.7150,-84.8850,1600,4.5550
1984-07-20 10:39:00 UTC,2445901.943750,25.7150,-84.8850,1600,4.5600
1984-07-20 11:09:00 UTC,2445901.964583,25.7150,-84.8850,1600,4.5610
1984-07-20 11:39:00 UTC,2445901.985417,25.7150,-84.8850,1600,4.5700
1984-07-20 12:09:00 UTC,2445902.006250,25.7150,-84.8850,1600,4.5580
1984-07-20 12:39:00 UTC,2445902.027083,25.7150,-84.8850,1600,4.5510
1984-07-20 13:09:00 UTC,2445902.047917,25.7150,-84.8850,1600,4.5580
1984-07-20 13:39:00 UTC,2445902.068750,25.7150,-84.8850,1600,4.5410
1984-07-20 14:09:00 UTC,2445902.089583,25.7150,-84.8850,1600,4.5620
1984-07-20 14:39:00 UTC,2445902.110417,25.7150,-84.8850,1600,4.5560
1984-07-20 15:09:00 UTC,2445902.131250,25.7150,-84.8850,1600,4.5560
1984-07-20 15:39:00 UTC,2445902.152083,25.7150,-84.8850,1600,4.5440
1984-07-20 16:09:00 UTC,2445902.172917,25.7150,-84.8850,1600,4.5530
1984-07-20 16:39:00 UTC,2445902.193750,25.7150,-84.8850,1600,4.5250
1984-07-20 17:09:00 UTC,2445902.214583,25.7150,-84.8850,1600,4.5600
1984-07-20 17:39:00 UTC,2445902.235417,25.7150,-84.8850,1600,4.5420
1984-07-20 18:09:00 UTC,2445902.256250,25.7150,-84.8850,1600,4.5480
1984-07-20 18:39:00 UTC,2445902.277083,25.7150,-84.8850,1600,4.5230
1984-07-20 19:09:00 UTC,2445902.297917,25.7150,-84.8850,1600,4.5510
1984-07-20 19:39:00 UTC,2445902.318750,25.7150,-84.8850,1600,4.5430
1984-07-20 20:09:00 UTC,2445902.339583,25.7150,-84.8850,1600,4.5480
1984-07-20 20:39:00 UTC,2445902.360417,25.7150,-84.8850,1600,4.5220
1984-07-20 21:09:00 UTC,2445902.381250,25.7150,-84.8850,1600,4.5530
1984-07-20 21:39:00 UTC,2445902.402083,25.7150,-84.8850,1600,4.5500
1984-07-20 22:09:00 UTC,2445902.422917,25.7150,-84.8850,1600,4.5510
1984-07-20 22:39:00 UTC,2445902.443750,25.7150,-84.8850,1600,4.5540
1984-07-20 23:09:00 UTC,2445902.464583,25.7150,-84.8850,1600,4.5500
1984-07-20 23:39:00 UTC,2445902.485417,25.7150,-84.8850,1600,4.5550
1984-07-21 00:09:00 UTC,2445902.506250,25.7150,-84.8850,1600,4.5560
1984-07-21 00:39:00 UTC,2445902.527083,25.7150,-84.8850,1600,4.5580
1984-07-21 01:09:00 UTC,2445902.547917,25.7150,-84.8850,1600,4.5510
1984-07-21 01:39:00 UTC,2445902.568750,25.7150,-84.8850,1600,4.5590
1984-07-21 02:09:00 UTC,2445902.589583,25.7150,-84.8850,1600,4.5490
1984-07-21 02:39:00 UTC,2445902.610417,25.7150,-84.8850,1600,4.5510
1984-07-21 03:09:00 UTC,2445902.631250,25.7150,-84.8850,1600,4.5450
1984-07-21 03:39:00 UTC,2445902.652083,25.7150,-84.8850,1600,4.5320
1984-07-21 04:09:00 UTC,2445902.672917,25.7150,-84.8850,1600,4.5550
1984-07-21 04:39:00 UTC,2445902.693750,25.7150,-84.8850,1600,4.5580
1984-07-21 05:09:00 UTC,2445902.714583,25.7150,-84.8850,1600,4.5560
1984-07-21 05:39:00 UTC,2445902.735417,25.7150,-84.8850,1600,4.5670
1984-07-21 06:09:00 UTC,2445902.756250,25.7150,-84.8850,1600,4.5520
1984-07-21 06:39:00 UTC,2445902.777083,25.7150,-84.8850,1600,4.5570
1984-07-21 07:09:00 UTC,2445902.797917,25.7150,-84.8850,1600,4.5530
1984-07-21 07:39:00 UTC,2445902.818750,25.7150,-84.8850,1600,4.5590
1984-07-21 08:09:00 UTC,2445902.839583,25.7150,-84.8850,1600,4.5570
1984-07-21 08:39:00 UTC,2445902.860417,25.7150,-84.8850,1600,4.5570
1984-07-21 09:09:00 UTC,2445902.881250,25.7150,-84.8850,1600,4.5510
1984-07-21 09:39:00 UTC,2445902.902083,25.7150,-84.8850,1600,4.5550
1984-07-21 10:09:00 UTC,2445902.922917,25.7150,-84.8850,1600,4.5410
1984-07-21 10:39:00 UTC,2445902.943750,25.7150,-84.8850,1600,4.5360
1984-07-21 11:09:00 UTC,2445902.964583,25.7150,-84.8850,1600,4.5570
1984-07-21 11:39:00 UTC,2445902.985417,25.7150,-84.8850,1600,4.5580
1984-07-21 12:09:00 UTC,2445903.006250,25.7150,-84.8850,1600,4.5550
1984-07-21 12:39:00 UTC,2445903.027083,25.7150,-84.8850,1600,4.5440
1984-07-21 13:09:00 UTC,2445903.047917,25.7150,-84.8850,1600,4.5540
1984-07-21 13:39:00 UTC,2445903.068750,25.7150,-84.8850,1600,4.5630
1984-07-21 14:09:00 UTC,2445903.089583,25.7150,-84.8850,1600,4.5480
1984-07-21 14:39:00 UTC,2445903.110417,25.7150,-84.8850,1600,4.5390
1984-07-21 15:09:00 UTC,2445903.131250,25.7150,-84.8850,1600,4.5550
1984-07-21 15:39:00 UTC,2445903.152083,25.7150,-84.8850,1600,4.5460
1984-07-21 16:09:00 UTC,2445903.172917,25.7150,-84.8850,1600,4.5540
1984-07-21 16:39:00 UTC,2445903.193750,25.7150,-84.8850,1600,4.5440
1984-07-21 17:09:00 UTC,2445903.214583,25.7150,-84.8850,1600,4.5660
1984-07-21 17:39:00 UTC,2445903.235417,25.7150,-84.8850,1600,4.5670
1984-07-21 18:09:00 UTC,2445903.256250,25.7150,-84.8850,1600,4.5630
1984-07-21 18:39:00 UTC,2445903.277083,25.7150,-84.8850,1600,4.5690
1984-07-21 19:09:00 UTC,2445903.297917,25.7150,-84.8850,1600,4.5370
1984-07-21 19:39:00 UTC,2445903.318750,25.7150,-84.8850,1600,4.5330
1984-07-21 20:09:00 UTC,2445903.339583,25.7150,-84.8850,1600,4.5520
1984-07-21 20:39:00 UTC,2445903.360417,25.7150,-84.8850,1600,4.5460
1984-07-21 21:09:00 UTC,2445903.381250,25.7150,-84.8850,1600,4.5480
1984-07-21 21:39:00 UTC,2445903.402083,25.7150,-84.8850,1600,4.5460
1984-07-21 22:09:00 UTC,2445903.422917,25.7150,-84.8850,1600,4.5600
1984-07-21 22:39:00 UTC,2445903.443750,25.7150,-84.8850,1600,4.5550
1984-07-21 23:09:00 UTC,2445903.464583,25.7150,-84.8850,1600,4.5520
1984-07-21 23:39:00 UTC,2445903.485417,25.7150,-84.8850,1600,4.5540
1984-07-22 00:09:00 UTC,2445903.506250,25.7150,-84.8850,1600,4.5450
1984-07-22 00:39:00 UTC,2445903.527083,25.7150,-84.8850,1600,4.5380
1984-07-22 01:09:00 UTC,2445903.547917,25.7150,-84.8850,1600,4.5460
1984-07-22 01:39:00 UTC,2445903.568750,25.7150,-84.8850,1600,4.5460
1984-07-22 02:09:00 UTC,2445903.589583,25.7150,-84.8850,1600,4.5370
1984-07-22 02:39:00 UTC,2445903.610417,25.7150,-84.8850,1600,4.5310
1984-07-22 03:09:00 UTC,2445903.631250,25.7150,-84.8850,1600,4.5360
1984-07-22 03:39:00 UTC,2445903.652083,25.7150,-84.8850,1600,4.5370
1984-07-22 04:09:00 UTC,2445903.672917,25.7150,-84.8850,1600,4.5260
1984-07-22 04:39:00 UTC,2445903.693750,25.7150,-84.8850,1600,4.5290
1984-07-22 05:09:00 UTC,2445903.714583,25.7150,-84.8850,1600,4.5220
1984-07-22 05:39:00 UTC,2445903.735417,25.7150,-84.8850,1600,4.5210
1984-07-22 06:09:00 UTC,2445903.756250,25.7150,-84.8850,1600,4.5350
1984-07-22 06:39:00 UTC,2445903.777083,25.7150,-84.8850,1600,4.5480
1984-07-22 07:09:00 UTC,2445903.797917,25.7150,-84.8850,1600,4.5410
1984-07-22 07:39:00 UTC,2445903.818750,25.7150,-84.8850,1600,4.5440
1984-07-22 08:09:00 UTC,2445903.839583,25.7150,-84.8850,1600,4.5400
1984-07-22 08:39:00 UTC,2445903.860417,25.7150,-84.8850,1600,4.5430
1984-07-22 09:09:00 UTC,2445903.881250,25.7150,-84.8850,1600,4.5550
1984-07-22 09:39:00 UTC,2445903.902083,25.7150,-84.8850,1600,4.5530
1984-07-22 10:09:00 UTC,2445903.922917,25.7150,-84.8850,1600,4.5420
1984-07-22 10:39:00 UTC,2445903.943750,25.7150,-84.8850,1600,4.5450
1984-07-22 11:09:00 UTC,2445903.964583,25.7150,-84.8850,1600,4.5550
1984-07-22 11:39:00 UTC,2445903.985417,25.7150,-84.8850,1600,4.5540
1984-07-22 12:09:00 UTC,2445904.006250,25.7150,-84.8850,1600,4.5380
1984-07-22 12:39:00 UTC,2445904.027083,25.7150,-84.8850,1600,4.5480
1984-07-22 13:09:00 UTC,2445904.047917,25.7150,-84.8850,1600,4.5240
1984-07-22 13:39:00 UTC,2445904.068750,25.7150,-84.8850,1600,4.5350
1984-07-22 14:09:00 UTC,2445904.089583,25.7150,-84.8850,1600,4.5570
1984-07-22 14:39:00 UTC,2445904.110417,25.7150,-84.8850,1600,4.5490
1984-07-22 15:09:00 UTC,2445904.131250,25.7150,-84.8850,1600,4.5170
1984-07-22 15:39:00 UTC,2445904.152083,25.7150,-84.8850,1600,4.5230
1984-07-22 16:09:00 UTC,2445904.172917,25.7150,-84.8850,1600,4.5200
1984-07-22 16:39:00 UTC,2445904.193750,25.7150,-84.8850,1600,4.5230
1984-07-22 17:09:00 UTC,2445904.214583,25.7150,-84.8850,1600,4.5400
1984-07-22 17:39:00 UTC,2445904.235417,25.7150,-84.8850,1600,4.5290
1984-07-22 18:09:00 UTC,2445904.256250,25.7150,-84.8850,1600,4.5070
1984-07-22 18:39:00 UTC,2445904.277083,25.7150,-84.8850,1600,4.5180
1984-07-22 19:09:00 UTC,2445904.297917,25.7150,-84.8850,1600,4.4900
1984-07-22 19:39:00 UTC,2445904.318750,25.7150,-84.8850,1600,4.5040
1984-07-22 20:09:00 UTC,2445904.339583,25.7150,-84.8850,1600,4.5230
1984-07-22 20:39:00 UTC,2445904.360417,25.7150,-84.8850,1600,4.5250
1984-07-22 21:09:00 UTC,2445904.381250,25.7150,-84.8850,1600,4.4890
1984-07-22 21:39:00 UTC,2445904.402083,25.7150,-84.8850,1600,4.5140
1984-07-22 22:09:00 UTC,2445904.422917,25.7150,-84.8850,1600,4.5240
1984-07-22 22:39:00 UTC,2445904.443750,25.7150,-84.8850,1600,4.5210
1984-07-22 23:09:00 UTC,2445904.464583,25.7150,-84.8850,1600,4.5060
1984-07-22 23:39:00 UTC,2445904.485417,25.7150,-84.8850,1600,4.5150
1984-07-23 00:09:00 UTC,2445904.506250,25.7150,-84.8850,1600,4.5290
1984-07-23 00:39:00 UTC,2445904.527083,25.7150,-84.8850,1600,4.5320
1984-07-23 01:09:00 UTC,2445904.547917,25.7150,-84.8850,1600,4.5160
1984-07-23 01:39:00 UTC,2445904.568750,25.7150,-84.8850,1600,4.5290
1984-07-23 02:09:00 UTC,2445904.589583,25.7150,-84.8850,1600,4.5070
1984-07-23 02:39:00 UTC,2445904.610417,25.7150,-84.8850,1600,4.5350
1984-07-23 03:09:00 UTC,2445904.631250,25.7150,-84.8850,1600,4.5190
1984-07-23 03:39:00 UTC,2445904.652083,25.7150,-84.8850,1600,4.5370
1984-07-23 04:09:00 UTC,2445904.672917,25.7150,-84.8850,1600,4.5190
1984-07-23 04:39:00 UTC,2445904.693750,25.7150,-84.8850,1600,4.5280
1984-07-23 05:09:00 UTC,2445904.714583,25.7150,-84.8850,1600,4.5170
1984-07-23 05:39:00 UTC,2445904.735417,25.7150,-84.8850,1600,4.5290
1984-07-23 06:09:00 UTC,2445904.756250,25.7150,-84.8850,1600,4.5080
1984-07-23 06:39:00 UTC,2445904.777083,25.7150,-84.8850,1600,4.5270
1984-07-23 07:09:00 UTC,2445904.797917,25.7150,-84.8850,1600,4.5090
1984-07-23 07:39:00 UTC,2445904.818750,25.7150,-84.8850,1600,4.5230
1984-07-23 08:09:00 UTC,2445904.839583,25.7150,-84.8850,1600,4.5410
1984-07-23 08:39:00 UTC,2445904.860417,25.7150,-84.8850,1600,4.5280
1984-07-23 09:09:00 UTC,2445904.881250,25.7150,-84.8850,1600,4.5290
1984-07-23 09:39:00 UTC,2445904.902083,25.7150,-84.8850,1600,4.5240
1984-07-23 10:09:00 UTC,2445904.922917,25.7150,-84.8850,1600,4.5020
1984-07-23 10:39:00 UTC,2445904.943750,25.7150,-84.8850,1600,4.5140
1984-07-23 11:09:00 UTC,2445904.964583,25.7150,-84.8850,1600,4.5290
1984-07-23 11:39:00 UTC,2445904.985417,25.7150,-84.8850,1600,4.5300
1984-07-23 12:09:00 UTC,2445905.006250,25.7150,-84.8850,1600,4.5300
1984-07-23 12:39:00 UTC,2445905.027083,25.7150,-84.8850,1600,4.5290
1984-07-23 13:09:00 UTC,2445905.047917,25.7150,-84.8850,1600,4.5490
1984-07-23 13:39:00 UTC,2445905.068750,25.7150,-84.8850,1600,4.5350
1984-07-23 14:09:00 UTC,2445905.089583,25.7150,-84.8850,1600,4.4910
1984-07-23 14:39:00 UTC,2445905.110417,25.7150,-84.8850,1600,4.5210
1984-07-23 15:09:00 UTC,2445905.131250,25.7150,-84.8850,1600,4.5400
1984-07-23 15:39:00 UTC,2445905.152083,25.7150,-84.8850,1600,4.5300
1984-07-23 16:09:00 UTC,2445905.172917,25.7150,-84.8850,1600,4.5490
1984-07-23 16:39:00 UTC,2445905.193750,25.7150,-84.8850,1600,4.5350
1984-07-23 17:09:00 UTC,2445905.214583,25.7150,-84.8850,1600,4.4900
1984-07-23 17:39:00 UTC,2445905.235417,25.7150,-84.8850,1600,4.5260
1984-07-23 18:09:00 UTC,2445905.256250,25.7150,-84.8850,1600,4.5310
1984-07-23 18:39:00 UTC,2445905.277083,25.7150,-84.8850,1600,4.5270
1984-07-23 19:09:00 UTC,2445905.297917,25.7150,-84.8850,1600,4.5050
1984-07-23 19:39:00 UTC,2445905.318750,25.7150,-84.8850,1600,4.5290
1984-07-23 20:09:00 UTC,2445905.339583,25.7150,-84.8850,1600,4.5060
1984-07-23 20:39:00 UTC,2445905.360417,25.7150,-84.8850,1600,4.5270
1984-07-23 21:09:00 UTC,2445905.381250,25.7150,-84.8850,1600,4.5410
1984-07-23 21:39:00 UTC,2445905.402083,25.7150,-84.8850,1600,4.5210
1984-07-23 22:09:00 UTC,2445905.422917,25.7150,-84.8850,1600,4.5250
1984-07-23 22:39:00 UTC,2445905.443750,25.7150,-84.8850,1600,4.5230
1984-07-23 23:09:00 UTC,2445905.464583,25.7150,-84.8850,1600,4.4860
1984-07-23 23:39:00 UTC,2445905.485417,25.7150,-84.8850,1600,4.5090
1984-07-24 00:09:00 UTC,2445905.506250,25.7150,-84.8850,1600,4.4950
1984-07-24 00:39:00 UTC,2445905.527083,25.7150,-84.8850,1600,4.5170
1984-07-24 01:09:00 UTC,2445905.547917,25.7150,-84.8850,1600,4.5250
1984-07-24 01:39:00 UTC,2445905.568750,25.7150,-84.8850,1600,4.5200
1984-07-24 02:09:00 UTC,2445905.589583,25.7150,-84.8850,1600,4.5250
1984-07-24 02:39:00 UTC,2445905.610417,25.7150,-84.8850,1600,4.5240
1984-07-24 03:09:00 UTC,2445905.631250,25.7150,-84.8850,1600,4.4830
1984-07-24 03:39:00 UTC,2445905.652083,25.7150,-84.8850,1600,4.5100
1984-07-24 04:09:00 UTC,2445905.672917,25.7150,-84.8850,1600,4.4800
1984-07-24 04:39:00 UTC,2445905.693750,25.7150,-84.8850,1600,4.5100
1984-07-24 05:09:00 UTC,2445905.714583,25.7150,-84.8850,1600,4.4800
1984-07-24 05:39:00 UTC,2445905.735417,25.7150,-84.8850,1600,4.5200
1984-07-24 06:09:00 UTC,2445905.756250,25.7150,-84.8850,1600,4.5200
1984-07-24 06:39:00 UTC,2445905.777083,25.7150,-84.8850,1600,4.5000
1984-07-24 07:09:00 UTC,2445905.797917,25.7150,-84.8850,1600,4.4850
1984-07-24 07:39:00 UTC,2445905.818750,25.7150,-84.8850,1600,4.5000
1984-07-24 08:09:00 UTC,2445905.839583,25.7150,-84.8850,1600,4.4800
1984-07-24 08:39:00 UTC,2445905.860417,25.7150,-84.8850,1600,4.5000
1984-07-24 09:09:00 UTC,2445905.881250,25.7150,-84.8850,1600,4.5000
1984-07-24 09:39:00 UTC,2445905.902083,25.7150,-84.8850,1600,4.4900
1984-07-24 10:09:00 UTC,2445905.922917,25.7150,-84.8850,1600,4.5100
1984-07-24 10:39:00 UTC,2445905.943750,25.7150,-84.8850,1600,4.4900
1984-07-24 11:09:00 UTC,2445905.964583,25.7150,-84.8850,1600,4.5100
1984-07-24 11:39:00 UTC,2445905.985417,25.7150,-84.8850,1600,4.5000
1984-07-24 12:09:00 UTC,2445906.006250,25.7150,-84.8850,1600,4.5000
1984-07-24 12:39:00 UTC,2445906.027083,25.7150,-84.8850,1600,4.4980
1984-07-24 13:09:00 UTC,2445906.047917,25.7150,-84.8850,1600,4.4940
